Location: Cactus School
(34.5700°N, 118.0931°W)
Time: 13:20:31
(UTC-08:00)

Vanguard 2 Rocket - All Passes

Search period start: 17 November 2017 00:00
Search period end: 27 November 2017 00:00
Orbit: 556 x 3326 km, 32.9° (Epoch: 17 November)

Date Brightness Start Highest point End Pass type
(mag) Time Alt. Az. Time Alt. Az. Time Alt. Az.
17 Nov - 01:46:01 10° SW 02:02:11 51° SSE 02:11:54 10° E visible
17 Nov - 04:04:12 10° WSW 04:17:29 77° S 04:24:41 10° E visible
17 Nov - 06:22:35 10° W 06:31:30 71° SSW 06:36:40 10° ESE daylight
17 Nov - 08:39:32 10° W 08:43:53 22° SW 08:47:16 10° SSE daylight
17 Nov - 22:33:27 10° S 22:44:44 18° SE 22:54:19 10° ESE visible
18 Nov - 00:44:35 10° SW 01:01:23 43° SSE 01:12:22 10° E visible
18 Nov - 03:01:55 10° WSW 03:17:19 71° SSE 03:25:50 10° E visible
18 Nov - 05:20:56 10° W 05:32:01 80° S 05:38:06 10° E visible
18 Nov - 07:38:32 10° W 07:45:05 39° SSW 07:49:25 10° SE daylight
18 Nov - 21:37:46 10° SSE 21:43:33 12° SE 21:49:02 10° ESE visible
18 Nov - 23:43:46 10° SSW 00:00:19 36° SSE 00:12:19 10° E visible
19 Nov - 01:59:41 10° WSW 02:16:47 64° SSE 02:26:45 10° E visible
19 Nov - 04:18:47 10° W 04:32:11 82° S 04:39:24 10° E visible
19 Nov - 06:37:18 10° W 06:46:03 57° SSW 06:51:12 10° ESE daylight
19 Nov - 08:55:37 10° WSW 08:57:57 13° SW 09:00:00 10° SSW daylight
19 Nov - 22:43:48 10° SSW 22:59:06 28° SE 23:11:27 10° E visible
20 Nov - 00:57:45 10° SW 01:15:53 56° SSE 01:27:23 10° E visible
20 Nov - 03:16:19 10° WSW 03:31:58 80° S 03:40:33 10° E visible
20 Nov - 05:35:37 10° W 05:46:40 72° SSW 05:52:45 10° ESE visible
20 Nov - 07:53:37 10° W 07:59:17 25° SW 08:03:16 10° SSE daylight
20 Nov - 21:45:05 10° S 21:57:53 21° SE 22:09:16 10° E visible
20 Nov - 23:56:22 10° SW 00:14:43 47° SSE 00:27:36 10° E visible
21 Nov - 02:13:48 10° WSW 02:31:23 74° SSE 02:41:30 10° E visible
21 Nov - 04:33:28 10° W 04:46:52 81° S 04:54:06 10° E visible
21 Nov - 06:52:05 10° W 07:00:24 42° SSW 07:05:28 10° SE daylight
21 Nov - 20:48:51 10° SSE 20:56:44 13° SE 21:04:20 10° ESE visible
21 Nov - 22:55:42 10° SSW 23:13:22 39° SSE 23:27:13 10° E visible
22 Nov - 01:11:30 10° WSW 01:30:24 68° SSE 01:42:11 10° E visible
22 Nov - 03:30:55 10° W 03:46:40 83° S 03:55:16 10° E visible
22 Nov - 05:50:19 10° W 06:01:10 60° SSW 06:07:15 10° ESE visible
22 Nov - 08:09:27 10° WSW 08:13:12 15° SW 08:16:12 10° S daylight
22 Nov - 21:55:56 10° SSW 22:12:00 31° SE 22:26:02 10° E visible
23 Nov - 00:09:40 10° SW 00:29:06 59° SSE 00:42:31 10° E visible
23 Nov - 02:28:14 10° WSW 02:46:01 82° S 02:56:13 10° E visible
23 Nov - 04:48:08 10° W 05:01:29 74° SSW 05:08:44 10° ESE visible
23 Nov - 07:07:07 10° W 07:14:29 29° SW 07:19:19 10° SSE daylight
23 Nov - 20:57:24 10° S 21:10:46 22° SE 21:23:32 10° E visible
23 Nov - 23:08:29 10° SW 23:27:36 51° SSE 23:42:23 10° E visible
24 Nov - 01:25:40 10° WSW 01:44:58 77° SSE 01:56:54 10° E visible
24 Nov - 03:45:36 10° W 04:01:20 81° S 04:09:58 10° ESE visible
24 Nov - 06:05:04 10° W 06:15:26 45° SSW 06:21:30 10° SE visible
24 Nov - 20:01:09 10° SSE 20:09:44 14° SE 20:18:25 10° ESE visible
24 Nov - 22:08:06 10° SSW 22:26:04 42° SE 22:41:39 10° E visible
25 Nov - 00:23:29 10° WSW 00:43:33 70° SSE 00:57:18 10° E visible
25 Nov - 02:42:51 10° W 03:00:43 84° S 03:10:56 10° E visible
25 Nov - 05:02:48 10° W 05:15:57 62° SSW 05:23:13 10° SE visible
25 Nov - 07:22:45 10° W 07:28:17 18° SW 07:32:24 10° S daylight
25 Nov - 21:08:38 10° SSW 21:24:39 32° SE 21:40:03 10° E visible
25 Nov - 23:21:55 10° SW 23:41:53 62° SSE 23:57:15 10° E visible
26 Nov - 01:40:07 10° WSW 01:59:36 83° S 02:11:37 10° E visible
26 Nov - 04:00:16 10° W 04:15:56 74° SSW 04:24:34 10° ESE visible
26 Nov - 06:20:02 10° W 06:29:26 32° SW 06:35:19 10° SSE daylight
26 Nov - 20:10:23 10° S 20:23:32 23° SE 20:37:08 10° E visible
26 Nov - 22:21:04 10° SW 22:40:08 53° SSE 22:56:44 10° E visible
